Location: Silverdale
(47.6506°N, 122.6941°W)
Time: 01:01:00
(UTC+00:00)

A-11 Canister half - Pass Details

Date: 12 October 2022
Orbit: 1524 x 1685 km, 47.3° (Epoch: 05 December)

Event Time Altitude Azimuth Distance (km) Brightness Sun altitude
Rises 04:32:20 0° 289° (WNW) 4,701 12.7 -30.9°
Reaches altitude 10° 04:36:12 10° 276° (W) 3,733 11.8 -31.5°
Maximum altitude 04:42:53 22° 230° (SW) 2,913 10.6 -32.5°
Enters shadow 04:47:57 15° 192° (SSW) 3,443 10.6 -33.2°
